STARLINK-5743, 55597

Orbit data source: Space-Track

STARLINK-5743, 55597 is a payload satellite owned by SpaceX/Seattle (US) in LEO that was launched on Sun, 12 Feb 2023 UTC via an FALCON 9 launch vehicle from the Air Force Eastern Test Range (AFETR). Payload-class satellites include a variety of spacecraft equipped with specific instruments for various scientific and technological missions. These include communications satellites like Starlink; space stations such as the ISS; scientific satellites like the Hubble; Earth observation satellites from companies like Planet Labs, Umbra, and HawkEye 360; GPS; miniature CubeSats for education and research; and military/defense satellites.

Loading next visibility...
Identifier
55597, 2023-020AE
Orbit
LEO
Country
Flag of USUS
Related business
Manufacturer
SpaceX/Seattle
Mission
Operational Commercial Communications
Bus & Motor
STARLINK, Unknown motor
Mass
305 kg wet, ~290 kg dry
Launch date (UTC)
2023-02-12 (3 years ago)
Launch vehicle
FALCON 9
Launch site
Air Force Eastern Test Range (AFETR)
Object type
Payload
Rocket body
Debris
Shape & HBR
Box + 1 Pan, 4.4 m
Radar Cross Section
13.562 m², Large (>1 m²)

Expand to show TLE details & history
Last TLE update: 16 hours ago

TLE from 16 hours ago
0 STARLINK-5743
1 55597U 23020AE  25260.23866861 -.00000452  00000-0 -18367-4 0  9995
2 55597  43.0035 214.5185 0001119 266.5104  93.5611 15.02533089142974
Epoch: 2025-09-17T05:43Z
TLE epoch observation values (Epoch: 2025-09-17T05:43:40.967Z)
Latitude
0.00001°
Longitude
132.18033°
Altitude
558.915 km
Speed
7.584 km/s
True Right ascension
14h 18m 04s
True Declination
0° 00' 00"
Sunlit
Object was in daylight at epoch
Visualization orbit readout
Latitude
Unknown
Longitude
Unknown
Altitude
Unknown
Speed
Unknown
Apparent Right ascension
Unknown
Apparent Declination
Unknown
Sunlit
N/A
Visualization observer readout
Local Sidereal Time
14:13:09
Azimuth
Unknown
Elevation
Unknown
Doppler factor
Unknown
Orbital elements
Apogee altitude
561.788 km
Perigee altitude
560.235 km
Semi-major axis
6,939.149 km
Eccentricity
0.00011
Inclination
43.0035°
RAAN
214.5185°
Arg. of periapsis
266.5104°
True anomaly
93.5739°
Mean anomaly
93.5611°
Eccentric anomaly
93.5675°
Mean motion
3.75477 °/min
Orbital period
95.88 mins
BSTAR
-0.000018367
Loading maneuver chart data...
Computing Atmospheric mass density...
Loading historical data...
Loading historical data...
Loading historical data...
Loading historical data...
Loading historical data...
Loading historical data...
Loading historical data...

Documentation

Showing up to 5 results
|